GFSGBSN_925_temp_096.txt.gz
Temp
6 6 6 6 6 6 6 6 6 5 5 5 5 5 5 5 5 5 5 5 6 7 7 6 6 6 8 12 15 17 15 15 15 16 18 20 20 21 22 23 24 23 24 25 25 25 26
6 6 6 6 6 6 5 5 5 5 5 5 5 5 5 5 5 5 5 6 8 8 8 8 6 6 8 10 15 14 14 14 16 16 18 20 21 22 22 23 23 24 24 24 25 25 25
6 6 6 6 6 6 6 5 5 5 5 5 5 5 5 5 5 5 5 7 8 9 8 9 7 7 9 12 14 15 14 14 15 16 19 19 20 21 21 21 23 23 22 23 24 24 24
6 6 5 6 6 5 5 5 5 5 5 4 5 5 4 4 4 5 5 7 9 9 9 8 8 8 10 13 12 13 13 14 13 14 14 17 17 19 21 23 21 22 22 22 24 25 25
5 5 5 5 5 5 5 5 5 4 4 4 4 4 4 4 4 5 5 7 9 9 8 8 9 9 12 12 12 14 15 15 15 15 14 16 17 19 20 20 21 22 22 23 23 25 25
5 5 5 5 5 5 5 5 5 4 4 4 4 4 4 4 4 4 6 8 9 8 9 9 10 9 12 15 15 14 15 14 15 16 15 16 17 18 19 20 20 21 21 22 22 25 24
5 5 4 4 4 4 5 5 4 4 4 4 4 4 4 4 4 4 6 9 11 12 8 10 12 13 14 14 14 14 15 15 17 16 17 17 17 18 20 20 21 22 21 22 23 24 23
5 5 4 4 4 4 4 4 4 4 4 4 4 4 4 4 4 5 6 9 6 5 5 9 10 11 10 10 10 13 15 15 16 16 18 17 17 20 21 20 19 17 17 21 23 23 22
4 4 4 4 4 4 4 4 4 4 4 4 4 3 3 3 4 6 6 7 6 5 6 10 12 12 13 12 11 11 15 16 16 17 18 18 19 20 19 18 17 18 19 20 21 22 23
4 4 4 3 3 3 3 3 3 3 3 3 3 3 3 4 6 6 8 7 5 5 6 12 13 12 11 11 11 14 14 16 17 17 17 18 20 18 17 18 18 19 21 20 20 20 21
4 4 4 3 3 3 3 3 3 3 3 3 3 3 3 3 5 7 6 5 5 4 8 15 14 12 13 10 12 15 15 16 17 18 17 17 16 17 16 18 19 19 21 19 20 20 21
4 4 4 3 3 3 3 3 3 3 3 3 3 3 3 5 5 5 4 4 6 7 9 13 14 13 13 13 14 15 13 16 18 18 18 18 18 18 18 18 19 20 19 19 19 20 18
4 4 3 3 3 3 3 3 3 3 3 3 3 4 4 4 6 4 4 7 8 8 13 12 11 12 12 11 11 14 13 14 17 16 16 17 18 18 18 16 18 19 19 17 17 17 19
3 3 3 3 3 3 3 3 3 3 3 3 4 4 4 4 4 3 6 9 7 10 11 10 10 12 10 9 13 15 15 15 18 18 17 16 15 17 17 17 17 18 19 19 18 19 20
3 3 3 3 3 3 3 3 3 3 3 3 4 5 5 4 3 4 8 8 9 9 10 9 10 10 9 8 9 15 15 17 17 18 17 17 16 18 18 18 19 17 18 19 17 17 18
3 3 3 3 3 3 3 3 2 3 3 3 4 5 6 3 3 5 7 7 8 9 9 9 7 8 7 9 9 12 16 17 17 18 18 18 15 17 16 18 18 19 20 17 17 16 18
3 3 3 3 3 3 3 2 2 3 3 4 5 8 5 3 3 6 7 7 8 9 9 8 7 6 7 7 9 10 12 16 16 17 18 18 18 15 16 18 18 17 17 18 19 18 18
2 3 3 3 2 2 2 2 3 3 3 3 5 7 4 4 7 7 7 7 7 8 9 9 8 7 6 7 8 10 10 13 15 16 16 16 17 15 17 17 19 20 19 19 18 16 17
3 2 2 2 2 2 2 2 3 2 3 4 5 7 5 5 6 7 8 8 8 7 8 8 9 8 6 7 9 8 10 12 13 14 14 16 16 15 14 16 18 18 18 18 17 17 15
2 2 3 2 3 2 2 2 2 2 3 3 5 6 7 5 6 5 6 7 6 8 7 7 7 7 7 8 8 9 9 11 11 12 13 15 16 16 17 17 18 16 17 17 17 16 17
2 2 2 2 3 3 3 2 2 2 3 4 5 4 5 6 6 6 6 5 6 5 8 8 8 9 9 8 9 9 9 10 11 10 12 14 15 16 16 16 17 17 17 16 17 17 16
2 2 3 2 2 2 2 2 2 2 3 3 4 6 5 6 6 7 6 6 6 7 7 8 8 10 11 9 8 8 8 9 10 12 11 11 13 15 14 15 16 16 16 16 16 16 17
2 2 2 2 2 2 2 2 2 2 2 3 3 3 5 6 7 7 7 7 7 8 8 9 9 9 11 9 8 9 9 10 10 11 12 13 14 15 14 15 15 15 15 16 17 17 17
2 2 2 2 2 2 2 2 2 2 2 3 2 3 4 6 7 7 7 7 7 7 7 9 10 9 10 10 11 12 11 12 12 13 12 13 14 14 13 14 13 15 16 16 16 15 15
2 2 2 1 2 1 2 1 2 2 2 2 1 2 4 5 7 7 7 7 8 9 8 8 9 9 9 10 12 13 13 13 13 12 12 13 13 13 13 14 14 14 13 13 14 14 13
2 2 2 1 2 2 1 2 2 2 2 2 2 2 2 5 7 6 7 7 8 8 8 9 9 9 9 10 11 11 11 12 12 13 13 13 13 13 13 12 12 12 13 14 14 14 10
1 1 2 1 1 1 1 2 2 2 2 2 2 2 1 4 8 6 7 7 7 8 7 8 8 8 9 10 11 11 12 12 11 12 11 12 11 11 11 12 13 10 13 14 14 11 9
1 1 1 1 1 1 1 2 1 2 2 2 2 2 2 4 7 6 7 7 8 7 7 8 9 8 8 9 9 9 10 10 11 11 11 12 12 11 11 11 11 6 12 11 6 6 6
2 1 1 1 1 1 1 1 1 1 2 2 2 1 2 2 4 3 4 5 6 7 7 7 6 6 7 8 8 7 7 8 9 10 11 10 8 9 8 7 5 4 4 3 3 3 4

GFSGBSN_925_temp_102.txt.gz
Temp
8 8 7 7 7 6 6 6 6 6 6 5 5 5 5 6 7 8 7 7 8 9 9 7 6 7 9 15 17 19 20 18 18 18 19 21 21 22 22 23 24 25 26 27 28 29 29
8 7 7 7 6 6 6 6 6 6 5 5 5 5 5 6 7 7 8 9 10 10 9 9 8 7 11 13 18 20 20 19 20 20 21 21 21 23 23 23 24 25 26 27 28 29 29
7 7 7 6 6 6 6 6 6 5 5 5 5 5 6 8 8 8 8 9 11 11 10 10 9 8 12 14 17 18 18 19 20 20 21 21 22 22 22 22 24 25 24 26 27 28 28
7 7 6 6 6 6 6 6 6 5 5 5 5 5 6 7 7 7 8 10 12 11 11 10 9 9 12 15 16 17 17 18 19 19 19 20 20 21 22 23 23 23 24 23 26 27 28
7 7 6 6 6 6 6 5 5 5 5 5 5 5 5 7 7 8 9 11 12 13 11 10 9 11 13 17 16 17 18 19 18 19 19 19 20 19 20 20 20 22 22 23 24 26 27
6 6 6 6 5 5 5 5 5 5 5 5 4 4 6 7 7 9 10 12 14 13 13 11 12 13 15 16 19 17 17 18 19 19 19 19 19 18 19 19 18 20 21 23 24 26 26
6 6 6 5 5 5 5 5 4 5 4 4 4 4 7 7 7 9 9 13 13 15 12 12 14 15 15 15 15 16 16 17 18 17 16 18 17 16 17 19 20 21 22 23 24 22 23
6 6 6 5 5 5 5 5 4 4 4 4 4 5 6 7 8 9 10 13 12 10 10 13 13 14 14 15 14 16 17 16 16 15 16 17 14 17 18 19 20 21 21 22 20 21 22
6 5 5 5 5 5 4 4 4 4 4 4 5 5 7 7 9 10 12 11 11 10 9 12 15 16 16 15 13 16 18 17 15 15 15 16 17 18 18 19 20 21 21 19 19 20 15
5 5 5 5 4 4 4 4 4 4 4 4 5 5 7 9 7 11 13 10 10 9 9 16 16 13 12 16 16 18 18 17 15 15 15 17 19 17 19 19 20 20 23 20 20 14 14
5 5 4 4 4 4 4 4 4 4 4 4 5 6 7 6 6 12 10 10 9 10 11 16 17 17 17 16 16 17 16 14 13 16 16 16 18 17 18 20 21 21 23 20 20 16 15
4 4 4 4 4 4 4 3 4 4 4 4 5 6 7 10 8 10 9 9 10 9 12 15 16 15 15 15 15 14 14 15 15 16 17 17 19 15 19 21 22 23 18 18 18 17 14
4 4 3 4 3 3 3 3 4 4 4 5 6 6 6 8 10 9 8 11 10 12 15 14 13 14 14 13 12 13 10 10 11 14 15 16 16 17 21 20 21 20 17 16 15 14 15
3 3 3 3 3 3 3 3 4 4 4 5 6 6 8 10 8 8 9 11 12 13 13 14 13 13 12 9 10 10 10 14 16 17 17 15 12 13 19 21 19 19 18 16 16 16 18
4 4 3 3 3 3 3 3 4 4 4 6 7 8 9 9 8 8 11 12 12 12 13 12 13 11 10 11 9 10 13 15 18 18 14 12 12 17 20 21 20 19 18 19 14 17 15
3 3 3 3 3 3 3 3 3 4 4 5 7 11 12 8 8 9 12 12 13 13 13 13 10 10 9 9 9 11 12 19 19 18 15 13 13 18 19 19 19 18 19 14 13 15 16
4 4 3 3 3 3 3 3 3 4 5 5 7 12 9 9 8 12 10 12 13 14 13 11 11 10 10 8 9 9 10 13 15 16 16 15 15 17 17 13 16 17 14 14 15 17 16
3 3 3 3 3 3 3 3 3 4 5 6 11 11 9 9 10 12 12 12 12 13 13 13 12 10 8 7 9 8 8 9 10 17 15 19 16 15 17 15 18 18 17 17 14 18 16
3 3 3 3 3 3 3 3 3 4 5 7 11 12 10 9 9 11 13 13 13 12 13 11 11 11 8 7 8 9 8 9 13 15 13 15 16 13 16 17 14 17 17 19 18 14 18
3 3 3 3 3 3 3 3 3 4 4 4 11 9 12 12 10 11 11 11 11 13 12 12 12 12 13 9 11 9 8 8 13 13 12 15 15 13 15 17 15 13 14 15 18 14 17
3 3 3 3 3 3 3 2 3 4 4 4 10 8 11 10 11 11 11 11 10 11 13 13 12 13 13 10 10 10 11 10 13 12 12 12 11 13 14 16 17 14 14 15 18 18 13
3 3 3 3 3 3 3 2 3 4 5 7 4 10 11 11 12 11 10 11 11 12 12 12 12 13 13 11 11 9 11 11 11 11 9 11 11 10 11 18 15 15 17 17 18 18 18
3 3 3 3 3 3 2 3 3 4 4 8 9 9 10 11 12 12 12 11 11 12 12 13 13 12 12 11 12 12 13 13 12 10 11 11 13 13 14 18 17 15 17 17 16 15 15
2 3 2 2 3 2 3 3 3 3 3 5 8 8 8 9 12 12 11 11 12 12 11 12 13 12 12 13 14 16 15 15 15 14 15 12 14 15 14 15 12 15 17 15 14 13 14
2 2 2 2 3 2 2 2 2 3 3 4 6 7 7 8 11 12 11 11 12 13 13 13 13 12 13 13 13 13 14 12 15 15 15 15 14 14 14 15 14 15 13 12 11 9 11
3 2 2 2 2 2 2 2 2 2 3 3 5 6 7 7 9 11 10 11 10 11 11 12 13 12 13 13 13 12 12 14 14 15 17 16 15 15 16 15 12 9 10 13 14 8 8
2 2 2 2 2 2 2 2 2 2 3 3 4 4 6 5 9 10 9 9 10 10 10 11 11 11 12 10 11 12 10 14 12 13 13 13 13 13 14 14 10 7 10 12 13 7 7
2 2 2 2 2 2 2 2 2 2 2 3 3 3 5 6 8 9 10 9 10 10 8 10 10 10 9 9 10 11 11 12 12 13 13 11 11 11 11 12 10 6 10 8 5 4 5
2 2 2 2 2 2 2 2 2 2 2 3 4 3 2 2 6 5 7 8 8 9 9 9 9 9 9 9 8 8 9 11 12 10 13 10 10 10 8 7 5 5 5 4 4 4 4

GFSGBSN_925_temp_105.txt.gz
Temp
9 9 8 8 7 7 7 6 6 6 6 6 6 5 5 5 6 7 10 11 11 12 12 11 9 6 7 10 11 19 18 19 18 18 17 17 17 17 17 18 19 19 21 23 24 24 25
9 9 8 8 7 7 6 6 6 6 6 6 5 5 6 6 8 9 10 11 13 12 11 10 9 6 7 8 16 17 18 16 17 17 17 17 17 17 17 18 19 21 21 22 23 24 25
9 8 8 7 7 6 6 6 6 6 6 6 5 5 6 7 8 10 11 13 13 12 11 10 9 7 8 9 16 17 17 16 17 18 17 19 19 17 18 18 20 20 19 21 22 23 23
8 8 8 7 7 7 6 6 6 5 6 5 5 5 7 8 9 11 11 12 12 13 12 12 9 8 8 13 15 15 16 17 17 18 18 18 19 17 17 17 18 18 18 17 21 22 23
8 7 7 7 7 6 6 6 5 5 5 5 5 5 7 8 9 10 11 12 13 14 13 12 9 8 9 15 15 16 15 15 16 17 18 18 18 16 16 15 14 16 15 17 19 22 22
7 7 7 6 7 7 6 5 5 5 5 5 5 6 7 8 9 10 11 13 13 13 13 11 11 10 13 14 14 14 15 15 16 16 16 17 16 15 15 14 12 14 16 17 18 20 22
7 7 7 6 6 6 5 5 5 5 5 5 5 7 8 8 9 10 10 12 9 10 10 10 11 11 12 13 14 15 15 15 15 14 13 14 13 13 13 14 15 15 16 17 18 21 20
7 6 6 6 6 5 5 5 5 5 5 5 6 7 7 8 10 10 10 10 10 9 6 10 11 12 13 14 14 15 15 13 15 13 13 12 12 14 16 16 15 15 15 16 18 21 16
6 6 6 6 5 5 5 5 4 5 5 5 6 6 7 8 9 11 11 10 10 9 6 10 14 16 15 13 14 14 16 15 13 10 12 12 12 15 15 16 13 15 15 16 17 16 15
6 6 5 5 5 5 5 4 4 4 5 5 6 6 8 7 8 10 10 10 9 9 5 14 16 15 15 15 14 17 17 13 13 12 12 12 13 14 15 14 13 15 17 18 18 15 14
5 5 5 5 5 4 4 4 4 4 5 5 6 6 7 6 7 9 9 9 9 9 9 15 15 17 16 14 14 14 15 13 12 12 12 11 14 14 15 16 15 15 17 18 19 12 13
5 5 5 5 4 4 4 4 4 4 4 5 5 6 7 8 7 9 9 9 9 7 10 13 14 13 14 13 13 13 13 13 13 12 12 11 15 15 15 16 15 16 16 15 14 14 12
5 4 4 4 4 4 3 3 3 4 4 5 5 6 6 7 8 9 8 8 7 9 14 13 12 13 13 12 11 11 11 12 11 10 11 13 14 16 15 13 14 16 15 11 13 11 12
4 4 4 4 4 3 3 3 3 4 5 5 5 6 8 8 9 8 8 7 10 12 12 13 12 13 10 11 10 11 12 11 12 12 11 12 11 15 15 15 14 14 14 12 14 13 14
4 4 4 3 3 3 3 3 3 4 5 5 6 7 7 9 9 8 6 5 10 11 12 12 12 10 10 11 10 10 12 10 13 12 13 11 11 13 15 16 16 16 15 16 14 13 12
4 4 4 3 3 3 3 3 3 4 4 5 5 8 9 10 8 8 6 11 12 13 13 12 9 10 8 9 8 10 11 13 10 11 10 10 10 14 17 18 18 17 17 12 11 14 14
4 4 3 3 3 3 3 3 3 4 4 4 4 6 9 10 9 6 4 10 12 14 13 12 10 10 9 8 8 8 9 11 10 9 9 11 9 14 16 14 16 15 12 13 14 13 13
4 3 3 3 3 3 3 3 3 4 4 4 6 6 9 9 5 4 5 11 12 12 13 12 11 11 8 8 8 6 7 9 10 10 10 12 12 13 15 14 15 15 14 13 13 14 13
3 3 3 3 3 3 3 3 3 4 4 4 6 6 9 9 3 4 11 12 12 11 12 11 10 11 9 7 6 7 7 11 11 11 11 11 14 13 12 14 11 13 15 15 15 13 13
3 3 3 3 3 3 3 3 3 4 4 4 5 5 7 6 7 9 9 10 10 11 12 12 12 11 10 7 9 8 8 11 11 12 12 12 13 11 12 12 14 14 15 14 12 13 13
3 3 3 3 3 3 3 3 3 4 4 4 4 4 8 4 5 9 10 10 9 9 12 12 11 11 10 8 8 8 10 10 11 11 10 10 10 10 12 12 12 11 11 12 13 14 13
3 3 3 3 3 3 3 3 3 4 4 4 1 6 8 7 10 10 9 10 10 11 10 11 10 11 10 9 8 8 9 9 9 10 10 10 10 10 11 10 11 10 11 13 12 12 12
3 3 3 3 3 3 3 3 3 4 4 6 9 8 5 7 9 8 8 11 10 10 11 12 10 10 10 9 10 10 11 10 10 10 11 10 10 10 11 14 14 11 11 11 10 11 12
3 3 3 3 3 3 2 3 3 3 4 4 7 7 3 4 7 10 11 11 11 11 10 11 11 10 10 10 10 11 13 11 11 13 12 12 11 12 12 13 12 9 10 10 9 8 10
3 3 2 2 3 2 3 3 3 3 4 4 5 5 4 3 8 10 11 10 10 9 10 11 10 10 9 9 9 11 11 11 13 14 14 14 12 11 12 11 11 11 9 8 9 7 8
2 2 3 2 3 3 2 2 2 3 4 4 5 6 5 2 5 9 9 8 7 6 7 9 9 9 8 8 9 10 10 12 11 12 14 13 12 11 12 12 10 8 7 8 10 7 6
2 2 2 2 3 3 2 2 2 2 3 4 4 4 5 1 6 7 6 6 8 7 6 7 7 7 8 5 7 8 9 12 10 11 10 9 9 9 10 10 8 5 7 8 10 6 5
2 2 2 2 2 2 2 2 2 2 3 4 3 4 4 4 4 7 7 6 6 5 4 5 5 5 4 5 7 7 7 9 10 11 11 8 9 7 8 8 7 5 7 6 5 4 4
2 2 2 2 2 2 2 2 2 2 3 3 3 3 3 2 2 4 5 7 7 7 5 5 6 7 6 4 5 6 6 6 9 9 10 8 8 6 6 6 4 5 4 3 3 3 4

GFSGBSN_925_temp_108.txt.gz
Temp
9 9 9 9 8 8 8 8 8 7 7 7 7 7 7 9 9 9 10 10 10 10 10 10 7 6 8 9 11 17 16 15 16 16 17 16 15 15 14 15 16 16 18 19 20 20 21
9 9 9 9 9 8 8 7 7 8 7 7 7 7 8 10 9 10 10 11 11 12 11 9 6 6 7 9 15 16 16 15 16 15 15 15 15 15 14 15 15 17 17 18 19 20 21
9 9 9 9 9 7 8 7 7 7 7 7 7 8 9 10 10 10 10 11 11 12 11 11 7 7 7 9 15 14 14 15 15 15 14 16 16 15 15 15 16 16 15 17 19 19 19
9 9 9 9 8 8 7 7 7 7 7 6 6 6 7 8 9 10 10 11 12 12 12 11 8 7 7 14 14 14 15 15 16 16 16 16 16 15 14 15 15 14 14 14 17 18 19
9 9 8 8 8 8 7 6 7 7 7 6 6 7 7 8 10 10 10 12 13 13 12 11 8 8 8 13 14 16 15 14 15 15 16 16 16 14 14 13 13 14 12 13 15 17 18
9 8 8 8 8 7 7 6 6 6 6 6 6 6 7 8 10 10 11 12 12 13 12 10 10 8 11 13 13 14 15 15 14 14 14 14 13 12 12 11 11 12 12 13 13 16 17
9 8 8 7 7 6 6 6 6 6 6 6 6 7 8 9 10 10 10 10 8 8 8 9 10 10 11 12 13 14 15 15 14 13 11 12 10 10 11 12 13 12 13 12 14 15 16
9 8 8 7 6 6 6 6 5 6 6 6 6 6 8 8 10 10 10 9 9 8 6 9 9 10 11 11 11 13 14 13 13 11 10 10 10 12 13 12 12 13 13 11 14 16 16
9 8 7 7 6 6 6 6 5 5 5 5 6 6 7 8 10 10 9 9 9 9 5 8 11 13 14 13 13 14 14 13 12 11 11 10 12 13 13 12 11 12 13 12 12 14 16
8 7 7 7 6 6 6 5 5 5 5 5 6 7 7 8 9 9 9 9 9 9 6 13 14 14 14 14 13 15 14 13 12 11 11 11 13 13 12 12 12 11 14 11 12 13 13
8 7 7 6 6 5 5 5 4 4 5 5 6 7 7 7 7 8 8 9 9 8 10 14 14 16 14 13 13 13 14 12 11 11 11 11 12 12 11 13 14 13 14 12 13 13 13
7 6 6 5 5 5 5 4 4 4 5 6 6 7 7 7 7 9 8 9 8 7 10 12 13 12 12 13 13 12 12 12 12 11 11 10 12 11 12 14 15 14 13 13 13 13 12
6 6 6 5 4 4 4 4 4 4 5 6 6 6 6 6 7 8 8 8 8 9 12 12 11 12 11 11 11 11 11 11 11 9 10 12 11 13 14 13 13 13 12 10 10 10 13
5 6 5 4 4 4 4 4 3 4 5 5 6 6 7 8 8 8 8 7 10 11 11 12 11 11 10 10 10 10 11 10 12 11 10 11 11 14 13 13 13 12 13 12 12 13 14
5 5 5 4 4 3 3 3 3 4 4 5 6 7 7 9 8 8 5 5 9 11 12 11 11 9 8 10 9 8 10 11 11 9 10 10 11 14 14 14 13 13 13 14 14 12 11
5 5 4 3 3 3 3 3 3 3 4 5 6 6 8 9 8 7 5 10 11 12 12 12 9 9 6 8 8 8 10 12 10 11 10 10 9 13 15 14 13 13 14 13 10 11 11
4 4 3 3 3 3 3 3 3 4 4 5 5 5 9 9 8 5 5 8 12 12 12 11 9 8 9 8 8 7 7 11 11 11 11 11 9 13 14 13 12 13 12 13 14 13 12
3 3 3 3 3 3 3 3 3 4 4 5 5 5 9 9 4 0 4 11 12 11 12 11 11 9 8 5 8 7 5 9 12 11 11 12 10 11 13 13 12 13 13 14 12 13 12
3 3 3 3 3 3 3 3 3 4 5 5 5 6 9 8 4 2 8 11 11 10 11 11 10 10 8 5 5 5 6 10 11 10 10 11 11 11 13 13 12 12 14 14 12 11 12
3 3 3 3 3 3 3 3 3 3 4 5 4 5 5 4 4 7 9 9 9 11 10 11 10 10 8 5 7 6 6 9 10 10 11 10 11 11 11 12 10 11 13 12 12 12 12
3 3 3 3 3 3 3 2 3 4 4 5 3 4 6 3 4 7 8 9 9 8 11 10 10 9 9 5 6 6 8 9 9 11 10 10 9 10 10 10 11 10 10 11 12 11 11
3 3 3 3 3 3 3 2 3 4 4 5 3 5 5 6 7 7 7 8 9 10 10 9 9 9 9 9 7 7 8 8 7 9 9 10 9 9 10 10 11 10 9 10 10 10 10
3 2 3 3 3 3 3 2 3 4 4 4 5 6 4 5 7 5 5 10 10 9 10 11 9 8 8 9 8 8 9 9 9 9 9 10 9 10 11 11 10 9 8 8 8 8 9
3 3 3 3 3 3 3 3 3 4 5 5 5 4 2 3 5 7 10 10 9 9 9 9 8 8 9 9 8 9 10 10 10 11 11 10 11 11 11 11 9 7 7 8 7 7 7
3 3 3 3 3 2 3 3 3 4 4 5 5 4 2 1 5 8 8 9 8 7 8 8 8 9 6 8 8 9 9 11 12 12 13 12 11 10 11 11 9 9 7 6 8 6 5
3 3 3 3 3 3 3 3 3 4 4 5 4 5 2 2 4 6 7 7 6 5 5 7 7 7 7 6 7 9 9 10 10 12 13 11 10 9 10 10 9 7 6 7 8 6 5
3 3 3 3 3 3 3 3 3 4 4 4 4 4 4 -0 4 6 5 6 6 5 4 5 5 6 5 3 5 7 8 10 9 9 10 9 8 8 9 9 8 4 5 7 9 5 4
3 2 3 3 2 3 3 2 3 3 4 4 2 4 4 1 2 5 6 5 5 4 3 4 4 4 3 4 5 6 7 7 8 10 9 8 8 6 7 7 7 4 5 6 5 4 4
2 2 2 2 2 2 2 2 3 3 3 4 3 3 4 1 2 3 5 6 6 6 3 3 4 5 4 3 3 4 5 5 7 7 9 7 7 6 6 5 4 4 3 3 4 3 3

GFSGBSN_925_temp_111.txt.gz
Temp
11 10 10 10 9 9 9 8 9 8 9 8 12 12 11 12 12 13 13 12 12 10 10 8 7 7 9 9 11 15 15 15 15 15 15 15 15 15 13 14 14 14 16 17 17 17 17
12 11 10 10 9 9 9 8 8 8 8 8 8 13 12 12 12 12 10 11 11 10 10 8 7 6 8 10 14 14 14 15 15 15 15 15 14 14 13 13 13 15 15 15 16 16 17
11 11 10 9 9 9 9 8 8 8 8 7 8 10 12 12 12 11 10 11 11 11 10 9 6 7 7 10 14 15 14 14 15 15 14 15 15 13 13 13 14 14 13 14 15 14 15
11 10 10 9 9 9 9 8 8 8 8 7 7 10 12 12 11 10 10 11 12 12 11 11 8 7 8 15 14 14 15 15 15 15 15 15 16 13 13 13 14 13 13 12 15 14 15
11 10 10 10 9 9 9 8 8 7 7 7 7 9 11 11 10 10 10 11 12 12 11 9 8 8 9 14 13 15 14 14 14 15 15 15 15 13 13 12 11 12 11 12 13 15 15
11 10 10 9 9 9 9 8 8 7 7 7 7 9 11 11 10 10 10 12 12 11 9 9 9 9 10 14 13 14 15 14 13 13 13 14 12 11 10 9 10 11 11 10 10 12 14
11 11 10 9 9 8 8 7 7 7 7 7 6 10 10 10 10 10 11 12 9 11 9 11 10 9 10 12 13 13 14 13 13 12 11 11 9 8 10 10 11 11 11 11 12 11 12
11 11 10 9 9 8 8 7 7 6 7 7 6 8 9 9 9 10 10 9 9 8 7 8 8 8 10 10 10 12 13 12 12 10 11 10 9 11 12 11 11 11 10 11 12 13 12
11 11 10 9 8 7 7 6 6 6 6 6 6 7 9 9 9 9 9 9 9 8 6 9 10 11 13 11 12 12 13 12 11 10 10 9 11 13 12 11 11 11 10 10 10 13 13
11 10 9 9 8 7 7 6 5 5 5 5 6 7 8 10 9 8 8 8 8 9 7 13 13 14 14 13 12 15 13 12 11 10 11 10 11 11 11 11 11 9 12 11 11 10 9
11 11 10 9 7 7 7 6 5 5 5 5 6 6 8 8 8 8 8 9 8 8 12 13 14 15 13 12 12 12 13 11 10 10 11 10 11 11 11 11 12 11 13 12 12 12 9
11 10 9 8 7 6 6 5 5 4 4 5 6 7 7 8 8 8 9 9 9 9 11 12 13 12 11 12 11 11 12 12 11 10 10 10 11 11 11 12 12 13 12 12 11 10 9
11 10 9 7 7 6 5 5 4 4 3 5 6 6 7 8 7 8 8 8 9 9 12 11 11 11 10 10 10 10 9 10 10 10 10 11 11 10 12 11 12 12 11 9 10 7 10
11 9 8 7 6 5 5 4 4 4 4 5 6 6 7 8 8 8 8 8 10 11 11 12 11 10 9 9 9 9 9 9 11 9 9 9 12 13 13 13 13 11 11 11 10 12 13
10 8 7 6 5 5 4 4 4 4 3 5 6 6 7 9 8 7 6 7 10 10 11 11 10 8 8 9 8 8 8 9 10 10 9 10 9 13 13 14 13 13 11 13 11 12 12
9 7 6 5 5 5 4 3 3 3 4 5 7 7 7 8 8 7 6 10 10 12 12 11 8 8 5 8 7 8 9 11 11 11 11 10 10 12 13 14 13 13 13 12 11 11 9
7 6 5 5 4 4 3 3 3 3 4 6 7 6 7 8 8 5 5 8 11 12 12 10 8 7 8 5 6 6 8 9 11 11 10 11 9 12 14 12 11 12 12 12 13 11 10
6 5 5 4 3 3 3 3 3 3 5 6 5 5 7 8 5 1 5 8 12 11 11 11 10 8 6 4 7 6 6 9 11 11 9 11 10 10 13 13 12 12 13 13 11 12 12
5 4 4 3 3 3 3 3 3 3 5 6 5 5 7 8 5 4 8 10 11 10 10 10 10 8 6 3 5 4 4 8 9 10 10 10 11 10 12 12 11 11 12 14 12 12 11
3 3 3 3 3 3 3 3 3 3 6 7 4 5 5 4 3 7 8 9 9 10 10 11 10 9 7 5 6 5 5 8 9 9 11 10 10 10 10 11 10 10 11 13 11 12 10
2 3 3 3 3 3 2 2 3 4 5 6 4 5 6 5 4 6 7 8 8 8 10 10 10 9 8 5 6 5 6 7 9 10 10 9 9 9 9 9 9 9 10 11 11 10 10
2 3 3 2 3 3 3 2 3 4 5 6 4 5 4 6 7 7 7 7 8 9 10 9 9 8 8 7 7 7 7 7 7 8 9 9 9 9 9 8 8 8 8 8 9 9 8
3 3 3 3 3 3 2 2 3 4 5 5 4 5 5 5 6 5 5 8 8 9 10 9 8 8 8 7 7 8 8 8 8 8 7 8 9 9 10 11 10 9 7 7 7 7 8
3 2 2 3 3 3 2 2 3 4 5 6 5 4 4 4 6 7 8 9 8 8 8 8 8 8 9 7 6 7 7 7 8 8 9 8 9 9 10 10 9 7 6 7 6 6 6
3 3 3 3 3 2 2 3 4 5 6 7 5 4 3 2 5 7 8 7 7 7 7 8 8 8 5 6 7 8 9 10 11 11 11 10 9 10 10 9 8 7 6 5 7 5 4
3 3 3 3 2 2 2 3 4 4 5 7 5 6 3 3 4 6 6 7 5 5 5 7 6 6 5 5 6 7 8 9 9 10 11 10 8 8 9 9 9 6 5 6 7 6 4
3 3 3 3 3 2 2 3 4 5 5 6 4 5 4 1 3 5 5 5 5 4 4 4 5 5 4 3 5 6 6 9 8 9 9 8 8 7 8 8 7 4 4 6 8 5 4
3 3 3 3 3 3 3 3 4 4 5 6 2 5 5 1 3 4 6 5 4 3 3 4 3 3 2 3 5 5 5 7 7 8 8 7 7 6 7 7 6 3 5 6 4 4 3
3 3 3 3 2 2 2 3 4 4 5 5 3 4 5 1 2 3 5 6 7 6 2 3 4 4 3 2 3 3 5 5 7 8 8 7 6 6 5 4 3 3 3 3 3 2 3

GFSGBSN_925_temp_114.txt.gz
Temp
13 12 11 11 11 10 10 9 9 9 9 9 8 9 7 10 12 13 13 13 13 12 11 11 10 10 11 11 13 14 15 15 15 15 15 14 14 14 13 13 13 13 14 15 14 14 14
13 12 12 11 11 11 10 9 9 9 9 9 8 8 8 11 12 13 13 13 12 11 11 11 9 9 9 12 14 14 15 15 15 15 15 14 14 14 12 12 12 13 13 13 13 13 13
13 13 12 12 11 11 10 10 9 9 8 8 8 8 10 11 11 12 13 13 12 11 11 11 9 8 8 12 14 14 15 14 15 15 14 15 15 13 13 12 13 12 11 13 14 14 14
13 12 12 12 11 10 10 10 10 9 8 8 7 7 9 11 11 12 12 12 12 12 12 11 8 8 9 15 14 15 15 15 15 15 14 15 14 12 12 12 12 12 11 11 13 14 14
13 13 12 11 12 11 10 10 10 9 8 8 7 6 7 11 11 11 12 12 11 11 11 10 8 7 11 14 14 15 14 14 14 14 14 14 13 11 12 11 10 10 10 11 12 13 12
12 12 12 12 11 11 10 9 9 9 8 7 6 6 6 10 10 11 12 12 11 10 8 8 8 8 12 13 13 13 14 13 12 12 12 13 9 10 8 9 9 10 9 10 10 12 12
11 12 12 12 11 10 10 9 9 8 7 7 6 6 7 9 10 10 12 11 9 9 9 11 10 10 10 12 13 13 13 13 12 12 10 11 9 8 8 9 11 10 10 9 10 12 11
10 11 12 12 11 10 9 9 8 8 7 7 6 6 8 9 10 10 10 8 9 8 7 8 8 8 9 10 10 12 13 12 12 10 10 9 8 10 11 10 9 9 9 9 11 12 11
8 9 10 11 11 10 9 9 8 7 7 6 6 6 9 9 9 10 9 8 9 8 6 8 9 10 12 10 11 12 13 12 10 9 10 8 10 11 11 10 10 10 9 10 10 11 11
7 8 9 10 11 10 9 8 7 7 7 6 5 6 8 8 8 8 8 8 8 8 7 12 12 13 14 12 12 13 13 12 10 10 10 9 10 10 10 9 10 8 11 11 10 10 8
7 7 8 9 11 10 9 8 7 6 6 6 6 6 8 7 8 7 8 8 9 9 11 13 13 14 12 12 11 12 12 11 10 10 9 10 10 10 9 10 11 10 11 11 11 10 10
6 7 7 8 10 10 9 8 6 6 6 6 6 6 7 7 7 8 8 9 9 8 10 12 12 11 10 11 11 10 11 11 11 10 9 9 10 10 10 11 11 11 10 10 10 9 8
6 7 7 7 9 10 8 7 6 5 6 4 5 6 6 7 7 8 8 8 9 9 12 11 10 11 10 9 9 9 8 9 9 9 10 10 10 10 11 10 11 10 10 8 9 10 10
6 6 7 8 9 9 8 6 5 5 4 4 4 5 6 7 8 8 8 8 10 11 10 11 11 10 9 8 9 8 8 7 10 9 9 9 9 11 11 11 12 10 11 10 10 10 12
5 6 7 8 9 8 7 6 5 5 4 4 4 4 5 7 7 8 6 6 10 9 11 10 10 8 8 9 8 7 8 8 10 10 8 9 9 12 12 13 12 12 10 12 10 11 11
7 7 7 8 9 8 6 5 5 4 4 4 4 5 6 8 7 8 5 9 10 11 11 10 9 8 6 8 7 7 8 10 10 11 10 8 10 11 12 13 12 12 12 11 10 11 11
7 7 9 8 8 6 5 5 4 3 4 5 5 5 6 8 7 5 5 8 10 11 11 10 7 7 8 5 5 5 7 8 10 10 10 10 9 11 11 12 11 11 11 11 11 11 11
8 9 8 8 7 5 5 4 3 3 5 5 5 5 5 7 4 2 6 8 11 10 11 10 9 8 6 4 5 3 4 8 10 9 8 9 9 9 11 13 12 11 11 12 11 11 11
9 9 8 7 6 5 4 3 3 4 4 5 4 5 5 6 4 5 8 9 10 10 10 9 9 8 5 3 3 3 3 7 8 9 8 8 10 10 11 12 12 11 12 13 12 11 10
9 7 6 5 5 4 3 2 2 4 6 7 5 4 4 4 4 7 8 8 9 10 9 10 9 7 6 5 5 3 3 8 8 9 10 10 10 10 9 9 8 9 10 11 11 10 9
6 6 5 4 4 3 3 2 3 4 5 6 4 4 6 5 5 6 8 7 8 8 9 9 8 8 7 4 6 5 6 6 8 9 10 9 9 8 8 8 8 7 8 9 9 9 8
4 4 4 4 3 3 2 2 4 4 4 5 4 5 5 6 6 7 8 7 8 8 9 9 8 8 7 7 7 7 7 6 6 8 8 8 8 8 9 9 9 7 6 7 8 8 6
2 2 2 2 2 2 2 3 3 4 5 4 4 5 5 6 6 6 6 7 7 8 7 8 8 7 7 7 7 6 6 7 7 7 6 7 9 9 10 10 10 8 6 6 6 6 7
2 2 1 1 1 2 2 3 3 5 6 6 5 5 5 5 6 7 7 8 8 8 7 8 7 7 8 6 5 6 5 5 6 7 7 7 8 9 10 9 9 6 6 7 6 5 5
2 2 2 2 2 2 2 3 4 6 7 8 5 5 4 4 6 7 7 6 6 6 7 7 8 7 4 5 6 8 8 9 8 10 8 8 8 9 10 9 8 7 5 5 6 5 4
2 2 2 2 2 2 3 4 5 6 7 8 5 6 4 5 5 7 5 6 5 5 6 7 6 5 5 5 6 6 7 8 9 9 10 8 8 8 9 9 8 5 5 5 6 6 3
2 2 2 2 2 3 4 5 6 7 8 8 5 6 5 3 4 5 5 5 4 3 4 4 4 4 4 2 4 5 5 8 7 8 8 8 7 7 8 8 6 4 4 5 7 4 3
3 3 2 2 2 3 4 5 5 6 7 9 3 6 5 2 3 4 5 4 3 3 3 3 3 2 2 3 5 4 5 6 5 7 8 6 7 6 7 7 7 3 5 6 4 3 2
3 2 2 2 3 3 4 4 5 6 6 7 4 5 6 2 2 4 5 6 6 5 2 2 3 4 3 2 2 3 4 4 6 8 7 6 5 6 5 4 3 3 3 2 2 3 2

GFSGBSN_925_temp_117.txt.gz
Temp
13 13 13 12 13 12 11 11 12 10 9 9 9 8 8 11 11 12 12 12 12 11 12 12 13 13 14 13 14 14 15 15 15 15 15 14 14 14 14 14 14 15 16 16 15 15 16
13 13 13 13 13 12 13 12 11 10 10 9 9 9 9 9 11 12 12 12 12 12 12 12 12 12 11 15 14 14 15 15 15 15 14 14 15 15 14 13 14 15 15 15 15 15 15
13 13 13 13 13 12 12 12 11 11 10 9 10 9 8 8 10 12 12 12 12 12 12 12 12 11 10 14 14 14 15 15 15 14 14 14 14 15 14 14 14 14 13 15 16 16 15
13 13 13 13 13 12 13 12 11 10 10 9 9 9 8 9 12 11 12 12 11 12 12 12 11 10 12 14 14 15 15 15 14 14 14 14 13 14 13 14 14 14 14 13 15 16 16
11 12 13 13 12 13 12 12 12 10 10 9 8 8 8 8 11 12 11 11 11 11 11 10 10 9 14 14 15 14 14 13 13 13 14 13 14 13 13 13 12 12 13 13 14 15 15
10 11 12 12 12 12 12 12 11 11 9 9 9 7 8 8 11 10 11 11 10 10 9 9 8 10 14 14 13 13 14 13 12 12 13 13 12 12 11 12 12 12 12 13 12 14 14
8 9 11 11 12 12 12 11 11 10 9 9 8 8 8 9 10 10 11 10 10 10 8 11 11 11 11 12 12 13 13 12 12 12 12 11 12 12 13 12 12 12 11 11 12 13 12
7 8 9 10 10 10 11 11 11 10 9 8 7 7 7 8 10 9 10 9 9 10 11 8 8 8 9 10 12 13 13 13 12 11 10 11 11 13 12 12 11 11 11 11 12 13 13
7 7 7 8 9 10 11 11 11 10 9 8 7 7 8 8 9 9 10 10 9 9 9 10 10 11 12 11 12 12 13 12 11 10 11 11 13 12 11 11 11 11 11 11 11 13 12
7 7 7 7 8 9 10 10 10 10 9 8 7 6 8 9 9 9 9 9 9 8 11 12 12 13 12 12 12 13 13 12 11 11 11 10 11 11 11 11 11 10 12 11 11 11 11
7 7 7 7 7 7 9 9 10 9 8 7 7 7 7 9 9 8 10 9 8 8 14 12 12 13 12 12 12 12 12 11 11 11 10 13 11 11 11 12 11 13 12 12 12 11 11
7 6 6 6 6 7 7 9 10 9 7 6 7 6 6 7 7 9 9 8 8 12 13 11 12 11 11 11 11 11 11 11 11 10 10 11 12 11 11 11 12 13 12 12 12 11 10
6 6 6 6 7 7 7 8 9 8 6 6 6 6 5 7 7 9 8 8 12 12 12 11 10 11 10 10 10 10 9 10 10 10 11 11 12 11 11 12 12 11 12 12 12 12 12
6 6 6 6 6 6 7 8 9 8 5 5 5 5 5 7 8 9 8 9 11 12 11 11 10 10 10 9 9 9 9 9 10 9 9 9 12 12 12 12 13 12 13 12 11 13 13
6 6 6 6 6 6 6 8 8 6 5 5 4 3 4 6 7 7 8 10 12 11 11 10 9 9 9 9 8 9 9 9 10 10 9 8 9 12 13 13 13 12 12 13 10 12 11
5 6 5 6 5 6 6 7 7 6 4 4 3 3 4 6 6 6 7 10 10 11 11 10 10 9 8 8 8 8 9 10 10 11 11 9 9 12 13 14 13 13 13 11 11 12 12
5 5 5 5 5 5 6 7 6 5 5 4 3 3 5 5 6 6 7 9 10 11 11 10 8 8 8 7 7 7 9 10 10 10 10 10 7 11 12 13 14 13 12 10 11 12 13
4 4 5 5 5 5 6 7 5 4 3 4 2 4 4 5 6 5 6 9 11 10 10 10 9 8 7 5 7 5 7 8 10 9 9 10 9 9 12 14 13 13 13 11 11 12 12
5 6 5 6 6 6 7 7 5 3 5 4 3 3 3 6 6 5 8 9 10 10 10 9 9 8 5 5 6 5 5 8 8 9 9 9 9 11 13 13 12 11 12 11 11 11 12
7 9 9 9 8 6 7 5 4 3 6 7 5 5 4 4 4 8 8 9 9 10 9 9 8 7 7 7 6 6 6 8 8 9 10 10 9 9 9 8 8 8 9 9 11 10 8
10 10 9 7 7 7 5 4 3 5 6 7 4 5 7 5 5 7 8 8 8 8 9 9 8 9 8 6 7 6 6 7 8 9 9 9 9 9 9 8 8 7 7 8 8 9 9
9 9 8 7 7 6 5 3 4 5 5 5 4 6 6 7 7 8 8 8 9 8 9 8 9 8 8 8 8 7 8 8 8 8 8 8 8 9 9 9 9 7 6 8 8 7 6
6 7 6 6 5 4 3 3 4 4 5 3 3 5 7 7 7 8 7 8 8 8 8 9 8 8 8 8 7 8 8 8 9 8 7 7 7 9 11 9 9 8 6 6 6 6 7
4 4 4 4 4 3 3 3 4 4 6 6 5 5 5 5 8 8 8 8 8 8 8 7 7 8 7 6 6 6 5 6 6 7 8 7 7 9 11 9 9 7 5 6 5 5 5
3 2 3 3 3 3 2 3 4 4 5 7 6 6 5 6 8 7 8 7 7 7 7 7 7 7 5 6 8 9 9 9 8 8 8 7 7 9 10 10 8 7 5 6 6 5 4
2 2 2 2 2 2 3 3 3 5 7 9 7 6 5 6 6 8 7 8 6 6 6 6 5 4 6 7 8 8 8 9 9 9 9 8 8 8 9 10 9 5 4 5 6 6 3
1 1 1 1 2 2 3 4 6 6 9 10 5 6 5 4 4 6 6 6 5 5 5 5 5 6 5 6 7 8 8 8 8 9 8 8 8 8 8 8 6 4 4 5 7 6 3
1 1 1 2 2 3 3 4 5 7 9 10 4 6 6 3 3 5 5 5 4 5 5 4 5 5 4 5 7 6 7 7 7 8 8 7 7 7 7 7 7 3 5 6 4 3 2
1 2 2 3 3 4 5 6 7 8 9 10 5 6 8 3 3 3 4 5 7 5 4 3 5 4 5 5 5 5 6 6 7 8 7 7 6 6 5 5 3 3 3 2 4 3 2

GFSGBSN_925_temp_123.txt.gz
Temp
14 14 14 14 14 13 13 13 13 12 12 10 10 10 10 10 10 13 13 13 13 14 14 14 15 15 16 22 23 17 16 17 18 20 20 22 22 22 23 24 23 23 24 24 24 23 23
13 14 14 14 13 13 13 13 13 12 11 11 10 10 10 11 9 12 12 12 13 14 14 14 14 15 18 21 19 18 17 18 19 20 21 21 21 22 21 22 22 23 22 23 23 24 24
12 13 13 13 13 13 13 12 13 13 12 11 11 10 9 11 11 12 12 12 13 13 14 14 14 13 19 21 19 19 17 19 18 19 20 20 20 21 22 22 23 22 21 23 25 24 23
11 12 12 12 13 13 13 13 12 12 12 11 11 10 9 10 9 12 12 12 12 13 14 13 13 15 20 18 18 18 19 19 18 18 18 19 19 20 20 22 21 22 23 23 26 25 24
8 9 10 11 12 12 12 12 12 12 12 12 11 10 10 9 9 10 11 12 13 12 12 13 13 16 21 16 18 19 18 19 18 18 18 18 19 20 21 21 23 24 23 24 24 25 23
8 8 8 9 11 11 11 12 12 12 12 11 11 10 9 9 9 10 11 12 12 12 13 13 15 17 19 20 19 18 18 17 19 19 19 19 20 20 22 22 23 22 22 23 22 24 23
8 8 8 8 9 10 10 11 11 11 12 11 11 10 10 9 8 10 11 12 16 17 16 20 20 20 20 19 17 18 18 19 19 19 20 20 20 22 23 21 21 20 20 21 22 23 21
7 7 8 7 8 9 9 10 11 11 12 11 11 10 9 8 7 10 10 16 16 12 15 20 19 19 18 18 19 19 17 19 19 20 20 20 20 23 20 20 19 20 20 21 22 22 21
7 7 7 8 7 7 8 9 10 10 10 11 11 10 9 7 8 9 11 13 12 12 16 18 19 19 19 18 19 20 19 20 19 20 20 20 22 19 19 20 20 21 20 21 20 21 21
7 7 7 7 7 7 8 8 9 9 9 10 10 10 10 7 8 9 11 11 11 11 15 19 17 18 17 19 18 20 18 19 19 19 20 20 21 19 19 19 20 19 21 20 20 19 19
6 7 7 7 7 7 7 8 8 8 9 9 10 10 9 7 9 11 9 9 10 11 12 20 18 18 19 18 18 18 17 18 18 19 18 21 19 19 19 20 19 19 19 19 19 19 19
6 6 6 7 7 7 7 7 7 7 8 9 9 9 8 5 8 9 8 9 9 8 11 18 18 16 17 17 18 18 17 17 18 17 19 19 21 19 19 19 19 19 18 20 21 21 19
6 6 6 6 7 7 7 7 7 7 7 8 9 7 7 6 8 8 8 9 7 10 18 17 17 17 18 17 17 17 17 17 18 17 18 20 20 20 18 18 20 19 19 18 19 18 19
6 6 6 6 6 6 7 7 7 7 7 7 7 6 6 6 8 7 8 8 9 16 18 18 18 17 17 18 17 16 17 18 17 17 18 19 18 19 19 19 19 18 19 18 15 17 18
5 5 5 6 6 6 6 7 7 7 7 7 6 4 4 5 7 7 6 8 13 17 19 18 17 16 17 17 16 16 17 18 19 17 16 17 17 20 19 19 19 19 18 19 16 18 17
5 5 5 5 6 6 6 6 7 7 7 6 4 4 4 5 5 6 6 9 10 16 17 17 15 17 16 16 15 16 17 18 17 17 16 16 13 18 19 18 19 18 20 16 15 14 16
4 5 5 5 5 6 6 6 7 7 7 6 4 5 3 4 4 4 7 10 13 15 17 16 15 16 16 16 15 16 17 17 17 16 16 16 11 17 18 18 19 18 17 16 16 17 15
4 4 4 5 5 5 6 6 6 6 6 5 4 6 3 3 4 5 9 9 13 14 16 15 17 15 15 13 14 12 14 16 17 16 14 16 14 14 18 19 18 18 17 16 13 15 13
4 4 4 5 5 5 5 6 6 6 6 4 5 3 3 4 7 7 10 10 12 12 14 15 14 13 12 9 10 10 11 15 15 15 15 14 14 15 17 17 17 16 16 14 13 13 12
4 4 4 4 5 5 5 5 6 6 6 6 3 4 2 2 7 11 9 11 11 14 15 14 13 11 10 11 13 10 11 13 14 14 11 12 14 14 16 15 14 12 13 13 12 11 13
4 4 4 4 4 5 5 5 5 6 5 6 5 7 9 5 5 8 11 11 10 11 13 12 10 11 12 10 11 11 12 14 13 13 13 13 11 12 14 14 13 11 9 11 11 12 12
4 4 4 4 4 4 4 5 5 6 5 6 5 11 12 13 9 9 10 11 11 11 12 11 11 11 11 11 11 11 13 13 13 14 14 13 10 10 10 13 12 10 9 11 11 10 9
4 4 4 4 4 4 4 4 5 5 5 6 8 12 13 12 10 8 11 12 12 13 12 12 11 10 11 13 14 15 15 15 14 14 14 12 11 10 14 14 13 11 8 9 10 12 11
3 3 3 3 4 4 4 4 5 5 5 7 9 12 12 11 12 10 12 13 13 13 11 11 13 12 13 13 13 13 13 13 13 14 14 11 10 12 14 13 12 8 12 12 11 11 11
3 3 4 5 6 6 7 7 6 5 5 8 9 11 13 12 12 11 12 12 12 11 10 13 14 14 13 12 12 12 12 12 13 14 14 14 11 12 13 15 9 9 10 11 11 9 9
3 4 6 7 7 8 7 7 8 5 5 9 9 11 13 13 12 13 12 11 10 11 12 11 10 12 12 13 13 12 13 14 13 13 13 13 12 10 13 13 13 9 9 10 11 10 9
4 5 5 6 6 7 8 8 8 5 6 8 8 11 13 10 13 12 10 11 12 11 10 9 9 10 11 12 12 13 14 16 14 12 10 11 11 11 12 13 10 8 8 7 9 8 8
3 4 4 4 5 5 5 5 5 5 6 7 5 9 11 8 8 10 10 10 10 12 9 10 10 10 10 11 13 14 14 14 13 15 14 13 13 12 12 12 11 7 6 7 7 7 7
2 4 4 4 4 4 4 4 5 6 7 8 6 8 8 7 6 7 7 9 11 13 12 11 12 11 12 12 14 14 12 13 14 12 13 12 13 12 10 8 6 4 5 6 6 6 6

GFSGBSN_925_temp_129.txt.gz
Temp
13 13 13 14 14 13 13 13 13 13 13 13 13 12 13 13 12 12 13 13 14 14 14 15 15 15 16 15 18 19 19 19 20 20 19 21 20 19 19 19 19 21 21 22 22 21 22
12 12 13 13 13 14 13 14 13 13 13 13 13 12 13 12 12 12 13 13 14 14 15 14 14 15 13 16 21 20 19 19 20 20 20 21 20 20 19 19 19 21 20 20 20 20 21
11 12 12 13 13 13 13 13 13 13 13 12 13 12 12 12 11 11 12 13 13 14 14 14 13 13 14 15 21 20 20 20 20 20 20 20 20 19 17 18 20 20 19 19 20 20 20
9 10 11 11 12 13 13 13 13 13 13 12 12 12 12 11 11 11 12 13 13 13 14 14 13 12 13 19 20 21 20 20 21 20 20 20 20 18 18 18 19 19 18 18 20 21 22
9 9 10 10 11 11 12 12 12 12 12 12 12 12 11 11 10 11 12 13 13 13 14 13 12 12 15 19 20 20 20 20 20 20 20 20 19 17 17 16 15 18 16 18 19 21 22
8 8 8 9 10 10 11 11 11 12 12 12 12 12 11 11 10 11 12 12 14 13 14 13 13 13 16 19 20 21 20 20 19 19 19 18 16 15 15 15 15 19 19 18 18 19 20
8 8 8 8 8 8 10 10 11 11 11 11 11 11 11 11 10 10 12 14 14 13 12 15 17 17 20 21 20 20 20 20 19 18 16 17 15 14 16 17 19 20 19 17 18 20 20
7 7 7 8 8 8 8 9 9 10 11 12 11 11 11 10 10 10 11 11 13 12 11 15 17 17 19 20 19 19 20 18 18 16 17 16 16 18 20 21 20 19 18 17 18 20 21
7 7 7 7 7 7 7 8 8 9 10 11 11 11 10 10 9 10 10 12 12 13 11 15 17 18 19 20 19 19 19 18 17 16 17 16 18 21 21 20 20 19 18 18 19 19 19
7 7 7 7 7 7 7 7 7 8 9 10 10 10 10 10 10 10 10 12 12 12 10 16 18 20 20 19 17 20 20 18 18 17 18 17 20 20 20 20 19 17 19 20 18 17 14
7 7 7 7 7 7 7 7 7 8 8 9 9 10 10 9 11 11 11 12 12 12 11 20 18 20 19 17 19 19 20 19 17 17 17 17 18 18 19 19 20 19 19 18 18 16 15
7 7 7 7 7 7 7 7 7 7 7 7 8 8 9 8 10 10 12 13 12 10 11 18 17 17 17 17 18 19 18 18 17 16 17 17 18 18 19 20 19 20 18 17 17 16 12
7 7 7 7 7 7 7 7 7 7 7 7 7 7 8 8 8 10 11 10 10 11 17 18 18 18 17 16 17 17 16 15 14 15 14 17 18 19 19 18 19 18 16 12 12 12 14
6 6 7 7 7 7 7 7 7 7 7 7 7 7 6 7 9 10 10 9 10 14 16 19 19 18 16 17 17 17 16 15 15 16 15 15 13 18 19 18 18 17 17 13 13 11 12
6 6 6 6 6 6 6 6 7 7 7 7 7 5 5 7 8 9 8 10 10 14 17 16 16 14 14 17 15 16 15 15 17 18 15 14 15 18 19 19 18 18 16 18 15 14 10
6 5 6 6 6 6 6 6 7 7 6 7 5 5 5 7 7 8 7 9 11 14 15 15 14 15 13 16 15 15 16 18 17 18 15 15 11 16 18 19 19 17 18 14 12 11 12
5 5 5 5 6 6 6 6 6 7 6 7 6 6 5 6 6 6 8 7 12 14 14 14 14 13 14 13 13 14 15 17 15 16 16 14 11 14 16 17 17 17 16 15 14 13 9
5 5 5 5 5 5 5 6 6 6 6 6 6 6 4 5 5 5 6 10 12 12 13 14 14 14 13 12 13 11 12 14 15 15 15 14 13 12 14 17 17 18 17 16 10 12 10
4 4 4 5 5 5 5 5 6 6 5 6 5 4 4 6 6 6 7 10 10 11 12 13 13 14 10 9 9 11 12 15 15 15 14 14 12 10 13 15 16 16 16 15 13 11 8
4 4 4 4 4 4 5 5 5 6 5 7 4 4 4 5 5 6 8 8 9 12 11 12 13 13 11 11 12 9 11 14 13 14 12 13 12 11 10 11 11 11 11 14 11 6 8
3 4 4 4 4 4 4 5 5 6 5 6 4 4 5 4 4 6 7 9 9 9 12 12 12 12 10 9 10 10 11 13 13 12 13 12 9 11 11 12 12 13 10 12 11 10 10
3 3 4 4 4 4 5 5 5 5 5 5 4 4 5 6 6 6 6 7 8 10 11 11 11 12 12 10 9 10 12 11 11 12 11 11 8 8 8 12 11 11 9 9 11 10 9
3 3 3 3 4 4 4 4 5 5 5 5 6 7 7 7 5 5 6 7 8 10 11 12 11 11 11 11 12 12 11 11 13 12 10 10 9 9 10 13 11 11 9 8 11 10 10
3 3 3 3 3 3 3 4 4 5 4 5 6 7 6 6 8 7 8 7 7 9 10 12 11 10 11 11 11 12 11 12 12 12 13 11 10 9 10 10 10 10 11 11 12 12 9
2 3 3 3 3 3 3 4 4 4 4 4 6 6 6 6 8 9 9 9 8 9 10 11 11 11 10 10 9 8 9 10 11 12 12 12 10 9 9 10 10 10 12 12 12 10 9
2 2 2 3 3 3 3 3 4 4 4 4 5 6 6 6 7 10 10 10 8 8 9 11 10 9 9 7 7 7 8 10 11 11 12 12 11 8 9 10 9 9 8 9 11 8 10
2 2 2 2 3 3 3 3 3 4 4 4 5 5 6 5 8 9 9 10 10 9 7 7 9 9 9 6 7 8 9 13 11 11 9 10 9 9 9 9 8 8 7 8 8 7 9
2 2 2 2 3 3 3 3 3 3 4 4 5 5 6 6 8 9 9 8 9 10 7 8 8 7 8 7 8 9 9 11 12 13 12 11 9 9 8 9 8 7 7 7 7 6 5
2 2 2 3 3 2 3 3 3 3 4 4 5 5 6 6 6 10 10 10 10 10 6 7 8 8 7 8 8 10 9 9 13 10 12 10 10 8 7 6 5 5 5 6 6 3 3